Theta_e
287 287 286 285 283 281 281 280 279 278 278 277 277 277 277 277 277 276 276 276 276 276 276 276 276 276 276 276 276 276 276 276 273 275 277 277 277 276 277 278 279 279 280
287 286 285 282 281 280 279 278 278 277 277 276 276 276 275 275 275 275 274 275 274 274 274 274 274 275 274 274 274 274 274 274 273 271 274 274 274 276 276 276 278 279 279
286 284 283 281 281 279 277 277 277 276 275 275 275 274 274 275 274 274 274 273 273 273 273 273 273 273 273 274 274 274 274 275 274 272 272 274 274 275 275 276 276 277 279
286 284 282 281 279 277 277 276 275 275 274 274 274 274 274 273 274 273 274 273 273 273 274 274 274 274 274 274 274 273 274 273 273 272 272 273 274 275 275 273 273 277 279
284 283 281 279 277 276 275 275 274 274 274 274 274 274 273 273 273 272 273 273 273 273 274 275 275 275 276 276 275 274 274 273 273 272 272 272 272 273 273 275 274 275 277
283 281 279 276 276 275 275 274 274 274 274 274 273 273 272 272 275 277 276 274 274 274 273 273 274 274 275 277 278 278 278 274 273 272 272 271 273 273 274 274 274 273 273
280 278 276 276 274 274 274 274 273 273 273 272 272 272 271 272 275 276 277 275 274 273 273 273 273 274 274 274 276 277 277 278 278 275 272 272 272 274 275 275 275 275 275
278 277 275 274 273 273 273 272 272 272 272 271 271 271 271 271 274 275 275 274 274 273 273 273 273 274 275 275 275 274 274 275 275 276 275 274 274 275 275 275 275 275 277
276 275 274 274 273 272 271 270 271 271 271 271 271 270 269 268 272 274 275 273 273 272 273 274 274 274 275 277 274 272 272 273 277 278 278 279 280 280 281 277 274 273 272
275 274 274 274 273 271 271 270 271 271 270 270 270 270 269 267 271 274 275 273 270 272 274 274 275 273 276 277 274 273 270 271 273 273 274 275 277 276 278 278 278 275 275
275 273 272 272 271 271 270 270 269 269 269 268 268 268 269 269 269 273 275 274 272 273 271 271 272 274 276 276 276 272 271 274 274 273 273 274 275 275 275 276 277 276 275
272 271 269 269 269 269 267 267 267 267 266 266 266 268 270 272 272 272 275 276 276 271 271 271 271 276 274 275 273 274 275 274 269 269 270 273 273 274 275 276 278 278 279
270 268 267 267 267 267 266 265 265 266 266 266 267 268 268 270 270 272 273 275 274 272 271 273 273 272 272 270 271 273 271 268 268 267 268 271 274 276 277 277 279 280 279
267 266 266 266 265 265 266 266 266 265 266 267 268 267 267 267 268 269 271 269 273 271 272 266 268 269 269 269 267 269 269 268 268 268 268 270 272 273 275 278 277 278 277
266 265 265 265 265 265 266 266 267 268 268 267 266 266 264 262 266 272 272 271 270 271 265 262 262 263 264 264 265 266 267 267 267 268 268 268 270 271 272 275 278 278 276
265 265 265 265 265 266 265 266 271 270 271 271 271 268 267 270 272 272 273 273 271 271 258 259 261 262 262 263 263 264 266 266 266 268 268 268 268 268 269 271 273 276 277
267 266 265 266 265 264 264 263 263 267 270 270 269 269 269 269 270 271 271 270 269 265 252 258 259 260 261 262 263 264 264 266 267 268 267 267 267 267 267 267 269 272 276
267 266 265 265 265 265 264 263 263 261 260 262 266 266 267 268 269 269 269 263 255 259 254 257 258 259 261 261 263 263 264 265 266 267 267 267 266 265 264 265 266 268 270
266 265 265 265 264 264 263 262 262 261 260 259 259 263 261 266 267 266 264 251 249 251 256 256 258 259 260 261 262 263 264 263 267 267 267 265 265 264 264 264 265 266 267
265 265 264 263 262 261 261 260 260 259 258 257 256 254 251 252 248 247 248 247 247 249 254 256 257 258 259 260 262 263 264 264 267 267 266 265 265 264 264 264 265 265 265
264 262 262 261 261 261 260 259 259 258 257 255 253 252 261 250 247 245 245 246 246 248 252 255 256 257 259 260 262 262 263 264 267 267 266 265 265 264 264 265 265 265 266
262 260 261 260 260 260 259 258 258 257 256 254 251 253 262 250 247 245 245 245 246 247 250 252 255 256 258 260 261 262 263 264 267 267 266 265 265 264 264 264 264 265 266
261 260 260 259 259 258 258 257 257 256 255 253 253 253 250 247 246 245 244 245 246 249 249 250 253 256 258 260 261 263 265 264 269 268 266 265 265 264 264 263 263 264 266
261 260 259 257 258 257 257 256 256 255 254 253 252 249 249 246 244 245 245 245 248 249 249 250 253 254 257 259 261 263 265 267 271 268 266 265 265 264 264 263 263 264 265
260 259 258 257 257 256 256 255 254 254 253 254 251 250 247 247 246 245 245 246 248 248 250 251 252 254 255 257 260 263 265 270 271 268 267 266 265 264 264 263 263 263 265
259 259 258 258 257 256 256 255 254 254 253 252 251 249 248 247 247 245 246 247 249 249 249 251 252 252 254 258 262 264 267 272 271 268 267 266 264 264 264 263 263 263 263
Wind_Speed
14 15 14 12 10 9 11 11 10 8 8 8 7 7 6 5 5 4 4 4 6 7 8 9 12 11 9 9 9 10 11 11 16 25 19 22 23 21 17 17 19 19 18
15 14 14 10 10 11 11 10 9 9 7 7 7 5 5 4 4 4 5 5 7 9 10 10 12 10 13 12 10 14 13 14 14 22 24 19 23 22 20 21 17 16 20
13 13 12 13 14 13 11 10 9 8 7 7 7 6 5 5 5 5 5 6 8 9 10 11 12 13 14 12 13 13 13 12 14 15 20 17 18 16 20 19 19 20 18
15 15 15 15 14 11 10 10 10 9 8 7 7 6 6 5 5 5 8 8 9 9 10 12 13 14 16 16 14 16 15 16 16 16 17 18 16 16 16 17 17 15 16
15 15 15 10 10 10 10 9 8 8 6 6 6 5 4 4 4 6 8 7 9 11 12 13 14 16 25 24 15 16 17 15 15 16 17 16 15 15 16 13 16 15 17
15 15 12 12 11 12 11 10 9 8 7 7 6 6 6 4 10 13 11 7 10 12 13 13 14 18 19 29 30 33 29 20 20 17 17 18 20 18 17 16 16 15 16
13 13 14 13 13 12 12 11 11 10 8 7 6 6 6 5 11 12 14 8 9 11 13 14 14 12 18 18 25 33 33 35 36 26 26 21 22 18 20 21 19 17 17
15 16 16 17 16 15 14 12 11 9 9 7 6 6 4 3 9 11 13 9 9 12 14 15 16 18 17 21 20 22 22 21 21 18 22 23 23 20 19 20 21 21 19
16 17 16 16 14 14 16 15 11 9 9 7 6 5 5 3 10 11 12 6 10 12 13 14 15 17 26 32 22 22 24 21 22 35 39 40 41 39 33 17 15 16 18
14 15 15 15 16 15 12 13 11 9 8 6 6 5 4 5 10 9 10 6 8 9 12 11 19 19 31 32 24 21 22 21 20 21 21 25 29 25 34 23 14 17 18
14 14 14 14 14 13 13 10 10 9 9 7 5 4 5 7 7 9 12 7 7 9 9 10 11 27 31 34 33 17 22 25 23 18 17 18 16 15 13 15 17 16 17
14 14 14 13 11 10 12 10 9 9 8 7 6 4 4 4 4 7 12 15 17 9 11 11 14 30 32 31 26 30 34 28 13 14 14 13 11 12 13 15 18 19 19
14 15 14 12 12 12 12 11 8 7 5 5 4 4 3 2 1 8 12 15 17 12 10 18 29 28 29 21 27 31 24 13 13 13 14 13 12 13 16 16 17 20 20
14 12 13 13 13 11 8 8 8 7 6 6 6 5 3 2 2 4 4 4 9 9 13 9 17 21 22 22 16 16 12 13 14 14 13 14 13 13 14 12 13 12 13
14 13 12 11 12 12 9 9 8 7 8 6 4 4 3 1 4 5 7 5 6 10 9 7 8 10 11 11 12 13 13 13 14 13 13 14 13 13 13 12 12 11 13
16 13 12 11 10 10 10 10 12 12 13 11 10 7 2 3 5 7 10 13 14 17 3 6 9 10 11 12 13 14 14 16 14 15 14 14 13 13 13 13 12 13 12
17 16 13 12 12 11 11 11 11 9 13 12 9 7 4 1 3 6 10 13 13 10 2 7 8 10 11 12 13 14 15 15 18 14 15 14 14 13 15 12 12 12 13
15 19 12 11 10 10 10 10 9 9 9 7 8 5 3 1 2 6 10 8 4 7 3 7 9 10 11 12 13 14 15 15 15 16 14 13 13 13 13 12 12 12 11
17 12 11 9 8 10 9 9 9 8 7 6 3 5 4 2 4 7 9 2 1 3 6 7 8 9 11 12 13 14 15 15 17 16 14 13 13 12 13 12 13 17 16
14 21 16 11 11 10 9 9 8 7 7 5 4 3 1 3 3 2 2 1 1 3 5 7 9 10 11 12 13 14 15 16 17 16 16 14 13 12 13 14 13 13 12
13 15 18 11 11 9 9 9 8 7 7 5 4 3 10 4 3 3 3 2 1 3 5 7 9 9 10 12 13 14 15 16 16 18 17 16 15 14 13 12 13 13 13
11 13 13 13 11 10 9 9 8 7 7 6 3 2 7 2 1 3 2 2 3 3 4 5 8 9 9 11 13 14 16 17 16 19 19 18 15 14 14 14 13 13 12
11 13 12 11 11 13 10 8 8 7 6 4 4 4 1 1 2 4 1 2 3 4 4 4 7 9 10 11 12 13 15 17 15 19 21 18 17 16 15 15 14 14 12
14 13 13 10 10 10 10 9 7 8 6 5 5 3 2 1 4 3 2 3 4 5 4 5 6 9 12 13 12 13 15 18 12 18 25 19 18 20 16 16 15 19 16
12 12 12 11 10 10 10 8 7 6 4 5 4 2 1 2 2 3 3 3 5 5 7 6 5 9 13 21 19 23 25 27 18 23 18 21 22 24 20 17 18 17 18
12 12 11 9 9 9 8 8 7 6 4 4 4 3 1 3 1 2 2 4 5 6 8 6 8 12 16 15 18 25 28 27 22 25 19 18 20 20 19 21 26 17 19
Wind_Direction
195 190 193 191 181 170 169 164 163 149 152 157 167 179 189 198 205 217 228 249 261 264 262 260 263 265 263 263 261 259 256 250 259 282 280 294 291 290 289 284 280 278 278
193 187 189 168 169 172 170 159 152 157 155 156 164 177 189 208 216 228 240 249 253 262 265 267 267 266 266 265 263 261 259 258 260 267 279 283 283 288 286 281 280 277 275
186 182 178 177 178 179 163 149 146 146 154 155 162 177 189 211 223 226 241 259 262 261 263 264 270 273 272 269 266 268 267 265 262 263 271 276 279 281 283 277 277 272 272
181 180 180 182 178 166 149 148 153 154 157 166 166 171 191 203 227 245 258 259 260 265 270 272 273 269 271 275 272 269 268 267 263 262 266 272 270 273 268 277 277 272 276
175 179 180 159 154 147 143 144 141 150 153 154 162 171 186 206 229 237 248 259 273 276 274 276 276 274 275 275 278 278 274 270 267 268 269 270 269 267 265 270 270 279 278
173 172 154 148 150 150 146 144 141 145 156 168 180 190 207 223 247 257 269 266 272 284 285 281 280 279 275 281 284 286 282 282 279 274 274 272 276 268 264 264 268 271 277
160 153 151 149 149 150 146 146 157 163 161 179 183 194 215 223 256 270 274 286 288 282 281 283 283 281 284 283 282 282 281 277 273 276 273 266 273 274 272 270 273 272 271
160 159 155 155 156 154 151 160 157 158 166 175 187 195 210 248 266 281 285 284 286 284 280 283 287 289 289 295 296 294 286 280 275 269 265 268 263 264 260 264 274 278 272
173 172 165 162 159 159 158 158 160 162 169 163 158 182 207 222 276 279 289 293 283 281 281 287 294 300 302 305 305 298 290 283 280 281 279 278 275 268 259 255 250 258 262
174 168 163 166 163 163 159 151 156 154 153 157 165 181 191 221 259 276 295 279 282 285 288 299 303 304 310 308 307 303 296 295 292 285 273 268 265 263 267 268 263 252 264
163 158 157 157 155 155 148 148 146 147 152 154 166 192 217 228 241 281 295 293 289 297 315 309 307 309 312 318 312 309 300 296 304 304 293 280 260 250 249 250 252 257 262
151 150 151 150 145 145 142 138 143 145 146 155 164 193 214 183 238 292 301 312 318 324 314 314 304 315 320 319 322 308 313 316 307 299 300 292 271 258 251 250 249 247 245
150 153 150 142 139 141 144 144 142 143 153 158 174 170 153 191 173 292 310 324 329 322 318 310 325 318 321 322 315 316 326 308 307 305 303 301 299 297 263 256 254 247 246
152 156 148 147 141 141 139 145 137 151 160 168 169 157 167 168 229 262 266 288 306 324 316 331 316 319 318 315 312 315 315 313 307 307 306 304 300 293 290 250 253 242 242
152 155 158 150 154 146 147 148 152 161 162 161 143 145 152 206 259 327 344 332 336 320 2 318 313 325 321 318 315 317 317 320 310 312 309 306 299 303 297 299 277 243 241
158 162 167 155 159 147 141 140 156 155 160 168 157 163 178 231 333 354 346 356 349 358 346 316 328 321 323 322 321 321 320 322 312 314 313 305 303 304 298 294 289 287 242
164 163 159 161 155 153 146 147 148 157 160 158 151 161 130 196 8 3 6 13 357 7 328 332 316 317 323 321 319 319 318 319 311 314 312 302 311 301 300 293 289 281 287
166 160 160 152 157 152 149 147 145 156 159 162 164 152 114 40 39 27 31 17 348 348 336 320 311 319 322 318 319 318 316 318 312 317 312 315 308 301 297 291 287 282 282
153 147 145 141 148 139 136 131 132 139 148 143 125 151 57 57 87 45 43 128 267 311 310 313 315 317 315 312 315 316 316 313 320 319 323 316 310 304 296 291 286 282 279
147 139 143 139 137 133 131 129 129 139 144 142 142 177 264 69 46 332 303 288 17 262 302 318 315 312 313 312 315 318 318 314 325 329 327 321 314 306 298 293 286 282 276
147 137 137 135 127 138 130 131 136 146 145 141 167 194 142 123 170 225 267 320 306 277 308 313 309 308 312 315 317 320 317 315 325 333 329 326 320 314 305 295 289 278 272
140 134 136 128 135 133 128 132 132 143 143 142 166 109 110 104 159 245 284 313 278 255 258 278 299 303 306 313 318 318 316 316 324 336 331 327 324 320 314 308 300 288 279
131 128 124 126 123 125 125 125 129 139 127 156 131 119 132 141 257 266 326 307 298 295 278 274 293 309 314 317 313 315 322 313 329 338 333 329 328 326 324 319 312 302 293
130 130 128 124 123 132 127 128 137 122 144 149 124 134 170 185 251 287 353 308 314 292 278 279 289 297 314 317 319 315 320 317 336 340 338 332 330 330 332 331 323 314 300
124 126 125 129 133 125 128 127 120 129 144 146 123 148 123 253 270 11 330 327 298 288 301 298 294 311 315 317 314 319 324 325 352 347 340 338 337 339 342 339 334 325 319
120 118 118 120 121 127 124 126 129 139 148 128 126 111 172 253 11 351 328 306 303 305 301 303 307 310 315 314 317 322 327 333 359 353 345 345 344 346 346 347 344 340 339